Regional Weather Roundup
Issued by NWS

Home | Current Version | Previous Version | Graphics & Text | Print | Product List | Glossary On
Versions: 1 2 3 4 5 6 7 8 9 10 11 12 13 14 15 16 17 18 19 20 21 22 23 24 25 26 27
000
ASUS45 KSLC 281010
RWRUT

UTAH REGIONAL WEATHER ROUNDUP
NATIONAL WEATHER SERVICE SALT LAKE CITY UT
400 AM MDT TUE MAR 28 2017

UTZ001>011-023>025-281100-

NORTHERN UTAH

CITY           SKY/WX    TMP DP  RH WIND       PRES   REMARKS
BRIGHAM CITY     N/A     40  30  67 N17       30.06R WCI  32
HILL AFB       MOCLDY    38  30  72 NW16      30.03R WCI  29
LOGAN          CLOUDY    40  34  79 NW10      30.06R WCI  33
OGDEN          CLEAR     38  30  73 N14       30.03R WCI  30
SALT LAKE CITY MOCLDY    40  33  76 NW10      30.03R WCI  33
TOOELE VALLEY  CLOUDY    41  32  70 NW10      30.07R
WENDOVER       CLEAR     41  22  46 NW18      30.09R
HEBER CITY     CLOUDY    37  30  75 NE8       29.96S WCI  31
WEST JORDAN    CLOUDY    43  37  79 NW26G32   30.03S

$$

UTZ011>015-024>027-281100-

CENTRAL/NORTHEAST UTAH

CITY           SKY/WX    TMP DP  RH WIND       PRES   REMARKS
PROVO AIRPORT  PTCLDY    40  31  70 N20G28    30.00S WCI  30
MOAB/CANYONLAN CLOUDY    43  41  93 N5        29.83S
DELTA          PTCLDY    34  30  86 NW10      30.04S WCI  26
PRICE          MOCLDY    40  30  67 NW10      29.87R WCI  33
RICHFIELD      CLOUDY    37  37 100 SW7       30.02  WCI  32
ROOSEVELT      CLOUDY    39  37  93 CALM      29.90R
VERNAL         CLOUDY    41  37  86 CALM      29.87S

$$

UTZ013>016-019>022-027-281100-

SOUTHERN UTAH

CITY           SKY/WX    TMP DP  RH WIND       PRES   REMARKS
BRYCE CANYON   CLOUDY    31  26  82 NW17      29.93S WCI  19
CEDAR CITY     CLOUDY    35  28  75 N15G22    30.01R WCI  25
MILFORD        CLOUDY    37  28  70 N16       30.03R WCI  28
ST GEORGE      PTSUNNY   51  33  50 VRB3      29.95S
HANKSVILLE     CLOUDY    43  36  75 CALM      29.88S
KANAB          MOCLDY    45  28  53 NW16G26   29.93
BLANDING       CLOUDY    39  36  91 S3        29.91R

$$

REGIONAL REPORTS     COLORADO/ARIZONA

CITY           SKY/WX    TMP DP  RH WIND       PRES   REMARKS
CRAIG, CO      LGT RAIN  38  35  89 W5        29.86S WCI  34
GRAND JUNCTION CLOUDY    42  42 100 CALM      29.84F
RIFLE, CO      CLOUDY    42  40  92 NW3       29.84F
MONTROSE, CO   LGT RAIN  38  38 100 NW3       29.88S
CORTEZ, CO     LGT RAIN  39  38  96 SW6       29.86S WCI  35
COLORADO CITY    N/A     45  30  57 NW15      29.94F
PAGE, AZ       CLOUDY    50  31  48 NW7       29.83F
GRAND CANYON   PTCLDY    31  28  89 CALM      29.88R
KINGMAN, AZ    CLEAR     47  23  38 N17       29.94F
FLAGSTAFF, AZ  CLEAR     31  26  82 CALM      29.85S

$$

REGIONAL REPORTS    NEVADA/IDAHO/WYOMING

CITY           SKY/WX    TMP DP  RH WIND       PRES   REMARKS
LAS VEGAS, NV  PTCLDY    57  22  25 NW17G29   29.99F
ELY, NY        CLEAR     27  22  81 NW10      30.12S WCI  17
ELKO, NV       CLEAR     29  25  85 CALM      30.19S
POCATELLO, ID  CLEAR     34  31  88 SW10      30.12S WCI  26
BURLEY, ID     CLOUDY    37  28  70 W16G22    30.13R WCI  28
FORT BRIDGER,  LGT SNOW  32  32 100 NW13      30.00S VSB 1   WCI  23
EVANSTON, WY   CLOUDY    31  28  89 N20       29.98S WCI  19
ROCK SPRINGS,  FLURRIES  36  32  85 NW7       29.92S WCI  30
KEMMERER, WY     N/A     32  28  86 NW12      29.97S WCI  23

$$




USA.gov is the U.S. government's official web portal to all federal, state and local government web resources and services.